Flag for U.S.A. Weather past 2 weeks in Chattanooga, Tennessee, U.S.A.

Now
77 °F

Overcast.


Feels Like: 79 °F
Forecast: 69 / 83 °F
Wind: 7 mph from South

Location: Lovell Field

Current Time: Jun 30, 2015 at 1:28:55 AM

Latest Report: Jun 30, 2015 at 12:53 AM


Visibility: 10 mi

Pressure: 29.93 "Hg

Humidity: 62%

Dew point: 63 °F

Location of ChattanoogaLocation

Historic Weather in Chattanooga — Graph

°F

Chattanooga temperature yesterday

Maximum temperature yesterday: 85 °F (at 4:53 PM)
Minimum temperature yesterday: 61 °F (at 6:53 AM)
Average temperature yesterday: 74 °F

Past Weeks' High & Low Weather Summary

 TemperatureHumidityPressure
High96 °F (Jun 16, 4:53 PM)97% (Jun 27, 2:53 AM)30.15 "Hg (Jun 27, 2:53 AM)
Low61 °F (Jun 29, 6:53 AM)30% (Jun 28, 5:53 PM)29.82 "Hg (Jun 27, 4:53 PM)
Average81 °F67%30.02 "Hg
* Reported Jun 14 11:53 PM — Jun 29 11:53 PM, Chattanooga, Weather by CustomWeather, © 2015

Note: Actual official high and low records may vary slightly from our data, if they occured in-between our weather recording intervals... More about our weather records

Advertising

Chattanooga weather history for previous 24 hours

 ConditionsComfort  
Time TempWeatherWind HumidityBarometerVisibility
11:53 PM
Mon, Jun 29
78 °FPassing clouds.6 mph60%29.93 "Hg10 mi
10:53 PM78 °FPassing clouds.7 mph62%29.92 "Hg10 mi
9:53 PM79 °FBroken clouds.6 mph60%29.90 "Hg10 mi
8:53 PM82 °FBroken clouds.5 mph55%29.90 "Hg10 mi
7:53 PM84 °FPartly sunny.10 mph49%29.90 "Hg10 mi
6:53 PM84 °FBroken clouds.13 mph49%29.89 "Hg10 mi
5:53 PM85 °FPartly sunny.10 mph48%29.90 "Hg10 mi
4:53 PM85 °FBroken clouds.12 mph48%29.91 "Hg10 mi
3:53 PM84 °FBroken clouds.13 mph51%29.93 "Hg10 mi
2:53 PM83 °FBroken clouds.13 mph51%29.96 "Hg10 mi
1:53 PM83 °FBroken clouds.15 mph50%29.96 "Hg10 mi
12:53 PM83 °FBroken clouds.14 mph50%29.97 "Hg10 mi
11:53 AM79 °FBroken clouds.7 mph56%29.98 "Hg10 mi
10:53 AM74 °FBroken clouds.No wind64%29.99 "Hg10 mi
9:53 AM71 °FPartly sunny.No wind68%30.00 "Hg10 mi
8:53 AM66 °FScattered clouds.No wind75%30.01 "Hg10 mi
7:53 AM63 °FScattered clouds.3 mph84%30.00 "Hg10 mi
6:53 AM61 °FPassing clouds.No wind90%29.98 "Hg10 mi
5:53 AM62 °FPassing clouds.No wind86%29.98 "Hg10 mi
4:53 AM62 °FClear.3 mph90%29.96 "Hg10 mi
3:53 AM63 °FClear.No wind87%29.96 "Hg10 mi
2:53 AM63 °FClear.No wind87%29.96 "Hg10 mi
1:53 AM64 °FClear.No wind84%29.96 "Hg10 mi
Weather by CustomWeather, © 2015

See weather overviewHow to use our weather pages